Preview of NWS' New Version of Forecast
This preview is not operational and should not be used for support decisions.

Regional Weather Roundup (RWR)

Issued by Gray - Portland, ME (GYX)

                            
000
ASUS41 KGYX 192005
RWRGYX
WEATHER ROUNDUP FOR MAINE AND NEW HAMPSHIRE
NATIONAL WEATHER SERVICE GRAY ME
400 PM EDT WED JUN 19 2019

MEZ002-005-006-010-012-015-018-020-021-024-026-027-029-192100-
MAINE
  
CITY           SKY/WX    TMP DP  RH WIND       PRES   REMARKS
PORTLAND       CLOUDY    64  58  80 S12       29.85F                  
SANFORD        FAIR      73  63  70 SE10      29.83F                  
BAR HARBOR     FAIR      66  56  70 SW15      29.86S                  
WISCASSET      FAIR      65  58  78 S9        29.87S                  
ROCKLAND       CLOUDY    56  54  93 S9        29.87F                  
FRYEBURG       PTSUNNY   80  59  48 S8G16     29.80S                  
LEWISTONAUBURN FAIR      71  60  68 S9G20     29.83S                  
AUGUSTA        FAIR      73  59  61 S10G20    29.83S                  
WATERVILLE     FAIR      76  60  57 S8G16     29.79S                  
BANGOR         PTSUNNY   74  58  57 S15       29.82S                  
GREENVILLE       N/A     73  54  51 VRB6      29.80S                  
MILLINOCKET    FAIR      80  53  39 VRB6      29.79S                  
HOULTON        FAIR      79  50  36 SW9       29.75F                  
PRESQUE ISLE   CLOUDY    78  50  37 CALM      29.76F                  
FRENCHVILLE    CLOUDY    75  51  43 NW6       29.77S                  
CARIBOU        CLOUDY    78  50  37 SW3       29.75S                  
$$

NHZ002-005-008-009-011-012-014-192100-
NEW HAMPSHIRE
  
CITY           SKY/WX    TMP DP  RH WIND       PRES   REMARKS
PORTSMOUTH     PTSUNNY   67  62  83 SE12      29.83F                  
ROCHESTER      FAIR      75  64  68 VRB7      29.83S                  
NASHUA         PTSUNNY   79  68  69 S6G16     29.81F                  
MANCHESTER     PTSUNNY   80  63  55 S10       29.79F                  
CONCORD        CLOUDY    76  63  64 SE10      29.81F                  
LACONIA        PTSUNNY   78  63  59 S10       29.80F                  
PLYMOUTH       CLOUDY    76  64  64 CALM      29.79S                  
BERLIN         CLOUDY    76  57  51 SE10      29.79F                  
WHITEFIELD     LGT RAIN  70  60  70 NW8       29.79S                  
JAFFREY        PTSUNNY   76  60  57 S7        29.83F                  
KEENE          PTSUNNY   78  63  59 S8        29.80F                  
LEBANON        FAIR      82  61  48 S8        29.76F                  
MT WASHINGTON  FOG       52  52 100 SW8G18      N/A  VSB 1/2          
$$

VTZ005-007-008-192100-
VERMONT
  
CITY           SKY/WX    TMP DP  RH WIND       PRES   REMARKS
ST JOHNSBURY     N/A     70  65  84 MISG      29.76F                  
MONTPELIER     PTSUNNY   77  61  57 S7        29.81F                  
BURLINGTON     PTSUNNY   80  61  52 S12       29.73F                  
$$

MAZ007-012-024-CTZ003-RIZ002-NYZ038-NYZ072-192100-
SOUTHERN NEW ENGLAND AND NY
  
CITY           SKY/WX    TMP DP  RH WIND       PRES   REMARKS
BOSTON         PTSUNNY   70  60  70 E17       29.84F                  
WORCESTER      CLOUDY    74  63  68 S9        29.85F                  
NANTUCKET      PTSUNNY   65  62  90 S8        29.88S                  
PROVIDENCE     PTSUNNY   72  64  76 S12       29.86S                  
HARTFORD       PTSUNNY   80  64  58 S10       29.81F                  
ALBANY         CLOUDY    76  65  68 S8        29.78F                  
NEW YORK CITY  CLOUDY    71  64  78 E7        29.81F                  
$$

ANZ081-ANZ082-ANZ150-NHZ014-MEZ023>029-192100-
COASTAL MARINE OBSERVATIONS
  
STATION/POSITION TIME  TEMP    WIND        PRES    WAVE
                       AIR SEA DIR/SP/G            HT/PER
                 (UTC) (F)     (DEG/KT/KT) (MB)    (FT/S)
ISLE OF SHOALS   1900   59     150/ 16/ 16 1010.5F
JEFFREYS LEDGE   1938      57                N/A     2/13
CASHES LEDGE BUO 1950   55 56  160/  4/  6 1012.2S   2/12
GEORGES BANK BUO 1950   53 52  340/  8/  8 1010.8R   3/ 6
$$

.............KEY..............
   WCI - WIND CHILL
   TC  - TEMPERATURE IN CELSIUS
   VSB - VISIBILITY IN MILES
   HX  - HEAT INDEX
   FAIR- INDICATES FEW OR NO CLOUDS BELOW 12,000 FT, WITH NO 
         SIGNIFICANT WEATHER AND/OR OBSTRUCTIONS TO VISIBILITY.